^^

..:: Storico WU ::..




Lo storico viene creato da WUnderground con i dati che la stazione Meteomincio invia al loro server. L' aggiornamento viene fatto ogni 5 minuti circa, tuttavia possono esserci intervalli pił ampi a causa di errori, interruzioni di servizio o problemi nell' invio tramite FTP.


Storico stazione MeteoMincio
Giorno Sommario per Marzo 11, 2022 Unità:  Inglese    Metrico   Entrambi
Giorno Settimana Mese Anno
  Max: Min: Media:
Temperatura: 53.6 °F 39.2 °F 45.7 °F
Dew Point: 39.2 °F 30.2 °F 35.4 °F
Umidità: 82% 51% 68%
Velocità vento: 16.2mph 3.1mph 9.8mph
Raffica: 26.7mph - -
Direzione- - East
Pressione: 30.4 in 30.3 in -
Precipitazioni: 0 in    
 
 
Tabulato Dati per Marzo 11, 2022
Ora Temperatura Dew Point Pressione Direzione Velocità vento Raffica Umidità Intensità pioggia (oraria) Info solare Situazione
00:04 39.2 °F 30.2 °F 30.3 in ENE 6.8 mph 9.9 mph 70% 0 in 0.00 W/m2 unknown
00:09 39.2 °F 30.2 °F 30.3 in ENE 7.5 mph 9.3 mph 70% 0 in 0.00 W/m2 unknown
00:14 39.2 °F 30.2 °F 30.3 in ENE 6.8 mph 8.7 mph 70% 0 in 0.00 W/m2 unknown
00:19 39.2 °F 30.2 °F 30.3 in ENE 6.8 mph 8.7 mph 71% 0 in 0.00 W/m2 unknown
00:24 39.2 °F 30.2 °F 30.3 in ENE 5.6 mph 8.7 mph 71% 0 in 0.00 W/m2 unknown
00:29 39.2 °F 30.2 °F 30.3 in ENE 5.6 mph 8.1 mph 71% 0 in 0.00 W/m2 unknown
00:34 39.2 °F 30.2 °F 30.3 in ENE 6.2 mph 8.1 mph 72% 0 in 0.00 W/m2 unknown
00:39 39.2 °F 30.2 °F 30.3 in ENE 6.8 mph 9.3 mph 73% 0 in 0.00 W/m2 unknown
00:44 39.2 °F 32 °F 30.3 in ENE 6.2 mph 8.7 mph 74% 0 in 0.00 W/m2 unknown
00:49 39.2 °F 32 °F 30.3 in ENE 6.2 mph 8.1 mph 75% 0 in 0.00 W/m2 unknown
00:54 39.2 °F 32 °F 30.3 in ENE 5.6 mph 8.1 mph 76% 0 in 0.00 W/m2 unknown
00:59 39.2 °F 32 °F 30.3 in ENE 5.6 mph 8.1 mph 76% 0 in 0.00 W/m2 unknown
01:04 39.2 °F 32 °F 30.3 in ENE 5 mph 8.1 mph 77% 0 in 0.00 W/m2 unknown
01:09 39.2 °F 32 °F 30.3 in ENE 5.6 mph 8.1 mph 78% 0 in 0.00 W/m2 unknown
01:14 39.2 °F 33.8 °F 30.3 in ENE 5 mph 8.1 mph 79% 0 in 0.00 W/m2 unknown
01:19 39.2 °F 33.8 °F 30.3 in ENE 5 mph 6.8 mph 79% 0 in 0.00 W/m2 unknown
01:24 39.2 °F 33.8 °F 30.3 in ENE 4.3 mph 5 mph 80% 0 in 0.00 W/m2 unknown
01:29 39.2 °F 33.8 °F 30.3 in ENE 5 mph 6.8 mph 81% 0 in 0.00 W/m2 unknown
01:34 39.2 °F 33.8 °F 30.3 in ENE 5.6 mph 8.1 mph 82% 0 in 0.00 W/m2 unknown
01:39 39.2 °F 33.8 °F 30.3 in East 6.2 mph 8.1 mph 82% 0 in 0.00 W/m2 unknown
01:44 39.2 °F 35.6 °F 30.3 in East 6.2 mph 8.1 mph 82% 0 in 0.00 W/m2 unknown
01:49 39.2 °F 35.6 °F 30.3 in ENE 6.8 mph 9.3 mph 82% 0 in 0.00 W/m2 unknown
01:54 39.2 °F 35.6 °F 30.3 in ENE 6.8 mph 9.3 mph 82% 0 in 0.00 W/m2 unknown
01:59 39.2 °F 35.6 °F 30.3 in ENE 6.2 mph 9.3 mph 81% 0 in 0.00 W/m2 unknown
02:04 39.2 °F 35.6 °F 30.3 in ENE 6.8 mph 8.7 mph 81% 0 in 0.00 W/m2 unknown
02:09 39.2 °F 33.8 °F 30.3 in ENE 8.1 mph 11.8 mph 81% 0 in 0.00 W/m2 unknown
02:14 39.2 °F 33.8 °F 30.3 in ENE 9.3 mph 11.8 mph 80% 0 in 0.00 W/m2 unknown
02:19 39.2 °F 33.8 °F 30.3 in ENE 8.7 mph 11.8 mph 77% 0 in 0.00 W/m2 unknown
02:24 39.2 °F 32 °F 30.3 in ENE 7.5 mph 11.8 mph 76% 0 in 0.00 W/m2 unknown
02:29 39.2 °F 32 °F 30.3 in ENE 8.1 mph 9.9 mph 75% 0 in 0.00 W/m2 unknown
02:34 39.2 °F 32 °F 30.3 in ENE 9.3 mph 11.8 mph 75% 0 in 0.00 W/m2 unknown
02:39 39.2 °F 32 °F 30.3 in ENE 9.3 mph 11.8 mph 75% 0 in 0.00 W/m2 unknown
02:44 39.2 °F 32 °F 30.3 in ENE 9.3 mph 13 mph 76% 0 in 0.00 W/m2 unknown
02:49 39.2 °F 33.8 °F 30.3 in East 9.3 mph 13 mph 78% 0 in 0.00 W/m2 unknown
02:54 39.2 °F 33.8 °F 30.3 in ENE 9.3 mph 13 mph 79% 0 in 0.00 W/m2 unknown
02:59 41 °F 33.8 °F 30.3 in ENE 8.7 mph 11.8 mph 80% 0 in 0.00 W/m2 unknown
03:04 41 °F 35.6 °F 30.3 in ENE 10.6 mph 14.9 mph 81% 0 in 0.00 W/m2 unknown
03:09 41 °F 35.6 °F 30.3 in ENE 11.8 mph 16.2 mph 81% 0 in 0.00 W/m2 unknown
03:14 41 °F 35.6 °F 30.3 in ENE 11.8 mph 17.4 mph 81% 0 in 0.00 W/m2 unknown
03:19 41 °F 35.6 °F 30.3 in ENE 11.2 mph 16.8 mph 81% 0 in 0.00 W/m2 unknown
03:24 41 °F 35.6 °F 30.3 in ENE 11.8 mph 21.1 mph 81% 0 in 0.00 W/m2 unknown
03:29 42.8 °F 37.4 °F 30.3 in ENE 12.4 mph 21.1 mph 81% 0 in 0.00 W/m2 unknown
03:34 42.8 °F 37.4 °F 30.3 in ENE 11.2 mph 16.8 mph 81% 0 in 0.00 W/m2 unknown
03:39 42.8 °F 37.4 °F 30.3 in ENE 11.2 mph 16.8 mph 80% 0 in 0.00 W/m2 unknown
03:44 42.8 °F 37.4 °F 30.3 in ENE 14.3 mph 17.4 mph 80% 0 in 0.00 W/m2 unknown
03:49 42.8 °F 37.4 °F 30.3 in ENE 13 mph 16.8 mph 80% 0 in 0.00 W/m2 unknown
03:54 42.8 °F 37.4 °F 30.3 in ENE 12.4 mph 16.2 mph 81% 0 in 0.00 W/m2 unknown
03:59 42.8 °F 37.4 °F 30.3 in ENE 11.8 mph 16.2 mph 81% 0 in 0.00 W/m2 unknown
04:04 42.8 °F 37.4 °F 30.3 in ENE 11.8 mph 16.2 mph 81% 0 in 0.00 W/m2 unknown
04:09 42.8 °F 37.4 °F 30.3 in ENE 11.2 mph 16.8 mph 81% 0 in 0.00 W/m2 unknown
04:14 42.8 °F 37.4 °F 30.3 in ENE 12.4 mph 17.4 mph 81% 0 in 0.00 W/m2 unknown
04:19 42.8 °F 37.4 °F 30.3 in ENE 11.8 mph 16.8 mph 81% 0 in 0.00 W/m2 unknown
04:24 42.8 °F 37.4 °F 30.3 in ENE 12.4 mph 16.2 mph 81% 0 in 0.00 W/m2 unknown
04:29 42.8 °F 37.4 °F 30.3 in ENE 11.8 mph 16.2 mph 81% 0 in 0.00 W/m2 unknown
04:34 42.8 °F 37.4 °F 30.3 in ENE 10.6 mph 16.2 mph 81% 0 in 0.00 W/m2 unknown
04:39 42.8 °F 37.4 °F 30.3 in ENE 11.8 mph 16.2 mph 81% 0 in 0.00 W/m2 unknown
04:44 42.8 °F 37.4 °F 30.3 in ENE 11.8 mph 17.4 mph 81% 0 in 0.00 W/m2 unknown
04:49 42.8 °F 37.4 °F 30.3 in ENE 12.4 mph 16.8 mph 81% 0 in 0.00 W/m2 unknown
04:54 42.8 °F 37.4 °F 30.3 in ENE 13 mph 16.8 mph 81% 0 in 0.00 W/m2 unknown
04:59 42.8 °F 37.4 °F 30.3 in ENE 11.8 mph 17.4 mph 81% 0 in 0.00 W/m2 unknown
05:04 42.8 °F 37.4 °F 30.3 in ENE 10.6 mph 16.8 mph 81% 0 in 0.00 W/m2 unknown
05:09 42.8 °F 37.4 °F 30.3 in ENE 9.9 mph 16.2 mph 81% 0 in 0.00 W/m2 unknown
05:14 42.8 °F 35.6 °F 30.3 in ENE 9.9 mph 14.3 mph 81% 0 in 0.00 W/m2 unknown
05:19 41 °F 35.6 °F 30.3 in ENE 9.3 mph 13 mph 81% 0 in 0.00 W/m2 unknown
05:24 41 °F 35.6 °F 30.3 in ENE 9.3 mph 13 mph 81% 0 in 0.00 W/m2 unknown
05:29 41 °F 35.6 °F 30.3 in East 10.6 mph 13 mph 81% 0 in 0.00 W/m2 unknown
05:34 41 °F 35.6 °F 30.3 in ENE 9.9 mph 14.3 mph 81% 0 in 0.00 W/m2 unknown
05:39 41 °F 35.6 °F 30.3 in ENE 9.3 mph 14.3 mph 81% 0 in 0.00 W/m2 unknown
05:44 41 °F 35.6 °F 30.3 in East 9.3 mph 13 mph 81% 0 in 0.00 W/m2 unknown
05:49 41 °F 35.6 °F 30.3 in ENE 11.2 mph 14.9 mph 80% 0 in 0.00 W/m2 unknown
05:54 41 °F 35.6 °F 30.3 in East 10.6 mph 18.6 mph 80% 0 in 0.00 W/m2 unknown
05:59 41 °F 35.6 °F 30.3 in East 9.9 mph 18 mph 80% 0 in 0.00 W/m2 unknown
06:04 41 °F 35.6 °F 30.3 in East 8.1 mph 14.3 mph 80% 0 in 0.00 W/m2 unknown
06:09 41 °F 35.6 °F 30.3 in East 8.1 mph 14.3 mph 80% 0 in 0.00 W/m2 unknown
06:14 41 °F 35.6 °F 30.3 in East 9.9 mph 14.3 mph 80% 0 in 0.00 W/m2 unknown
06:19 41 °F 35.6 °F 30.3 in East 8.1 mph 14.3 mph 79% 0 in 0.00 W/m2 unknown
06:24 41 °F 35.6 °F 30.3 in ENE 9.3 mph 13 mph 80% 0 in 0.00 W/m2 unknown
06:29 41 °F 35.6 °F 30.3 in East 9.3 mph 14.3 mph 79% 0 in 0.00 W/m2 unknown
06:34 41 °F 35.6 °F 30.3 in East 9.3 mph 14.3 mph 80% 0 in 0.00 W/m2 unknown
06:39 41 °F 35.6 °F 30.3 in East 8.7 mph 11.8 mph 80% 0 in 0.00 W/m2 unknown
06:44 41 °F 35.6 °F 30.3 in East 10.6 mph 14.3 mph 80% 0 in 7.00 W/m2 unknown
06:49 41 °F 35.6 °F 30.3 in East 8.1 mph 14.3 mph 80% 0 in 11.00 W/m2 unknown
06:54 41 °F 35.6 °F 30.3 in ENE 7.5 mph 11.8 mph 80% 0 in 14.00 W/m2 unknown
06:59 41 °F 35.6 °F 30.3 in ENE 7.5 mph 11.8 mph 80% 0 in 19.00 W/m2 unknown
07:04 41 °F 35.6 °F 30.3 in East 6.8 mph 11.8 mph 80% 0 in 21.00 W/m2 unknown
07:09 41 °F 35.6 °F 30.3 in ENE 6.8 mph 11.8 mph 80% 0 in 25.00 W/m2 unknown
07:14 41 °F 35.6 °F 30.3 in ENE 6.2 mph 9.9 mph 80% 0 in 26.00 W/m2 unknown
07:19 41 °F 35.6 °F 30.3 in ENE 6.8 mph 10.6 mph 80% 0 in 30.00 W/m2 unknown
07:24 41 °F 35.6 °F 30.3 in ENE 6.8 mph 11.8 mph 80% 0 in 40.00 W/m2 unknown
07:29 41 °F 35.6 °F 30.3 in ENE 7.5 mph 11.8 mph 80% 0 in 49.00 W/m2 unknown
07:34 41 °F 35.6 °F 30.3 in ENE 7.5 mph 10.6 mph 81% 0 in 56.00 W/m2 unknown
07:39 41 °F 35.6 °F 30.3 in ENE 6.8 mph 9.9 mph 81% 0 in 70.00 W/m2 unknown
07:44 41 °F 35.6 °F 30.3 in ENE 6.8 mph 9.3 mph 81% 0 in 95.00 W/m2 unknown
07:49 41 °F 35.6 °F 30.3 in ENE 8.7 mph 11.8 mph 81% 0 in 95.00 W/m2 unknown
07:54 41 °F 35.6 °F 30.3 in ENE 8.7 mph 11.8 mph 81% 0 in 107.00 W/m2 unknown
07:59 42.8 °F 35.6 °F 30.4 in ENE 10.6 mph 14.9 mph 80% 0 in 144.00 W/m2 unknown
08:04 42.8 °F 35.6 °F 30.4 in ENE 10.6 mph 14.9 mph 79% 0 in 165.00 W/m2 unknown
08:09 42.8 °F 35.6 °F 30.4 in ENE 9.9 mph 14.9 mph 78% 0 in 169.00 W/m2 unknown
08:14 42.8 °F 37.4 °F 30.4 in ENE 10.6 mph 14.9 mph 78% 0 in 165.00 W/m2 unknown
08:19 42.8 °F 37.4 °F 30.4 in ENE 9.3 mph 14.9 mph 77% 0 in 148.00 W/m2 unknown
08:24 44.6 °F 37.4 °F 30.4 in East 9.3 mph 13.7 mph 76% 0 in 209.00 W/m2 unknown
08:29 44.6 °F 37.4 °F 30.4 in ENE 9.9 mph 13.7 mph 75% 0 in 213.00 W/m2 unknown
08:34 44.6 °F 37.4 °F 30.4 in ENE 9.9 mph 14.3 mph 75% 0 in 218.00 W/m2 unknown
08:39 44.6 °F 37.4 °F 30.4 in ENE 11.2 mph 14.3 mph 74% 0 in 230.00 W/m2 unknown
08:44 44.6 °F 37.4 °F 30.4 in ENE 11.8 mph 17.4 mph 73% 0 in 248.00 W/m2 unknown
08:49 46.4 °F 37.4 °F 30.4 in ENE 11.8 mph 17.4 mph 72% 0 in 264.00 W/m2 unknown
08:54 46.4 °F 37.4 °F 30.4 in ENE 12.4 mph 16.2 mph 71% 0 in 272.00 W/m2 unknown
08:59 46.4 °F 37.4 °F 30.4 in ENE 12.4 mph 16.2 mph 71% 0 in 262.00 W/m2 unknown
09:04 46.4 °F 37.4 °F 30.4 in East 9.9 mph 16.2 mph 71% 0 in 241.00 W/m2 unknown
09:09 46.4 °F 37.4 °F 30.4 in East 12.4 mph 16.2 mph 70% 0 in 188.00 W/m2 unknown
09:14 46.4 °F 37.4 °F 30.4 in East 12.4 mph 17.4 mph 70% 0 in 176.00 W/m2 unknown
09:19 46.4 °F 37.4 °F 30.4 in East 9.9 mph 16.8 mph 70% 0 in 174.00 W/m2 unknown
09:24 46.4 °F 37.4 °F 30.4 in East 11.8 mph 17.4 mph 70% 0 in 214.00 W/m2 unknown
09:29 46.4 °F 37.4 °F 30.4 in East 10.6 mph 16.8 mph 70% 0 in 250.00 W/m2 unknown
09:34 46.4 °F 37.4 °F 30.4 in East 13.7 mph 17.4 mph 70% 0 in 329.00 W/m2 unknown
09:39 48.2 °F 37.4 °F 30.4 in East 13 mph 17.4 mph 69% 0 in 394.00 W/m2 unknown
09:44 48.2 °F 39.2 °F 30.4 in East 10.6 mph 16.8 mph 69% 0 in 390.00 W/m2 unknown
09:49 48.2 °F 39.2 °F 30.4 in East 11.2 mph 16.2 mph 68% 0 in 410.00 W/m2 unknown
09:54 48.2 °F 39.2 °F 30.4 in East 11.8 mph 14.9 mph 68% 0 in 431.00 W/m2 unknown
09:59 48.2 °F 39.2 °F 30.4 in East 13.7 mph 17.4 mph 67% 0 in 432.00 W/m2 unknown
10:04 50 °F 39.2 °F 30.4 in East 13.7 mph 18 mph 67% 0 in 462.00 W/m2 unknown
10:09 50 °F 39.2 °F 30.4 in ESE 14.3 mph 18.6 mph 67% 0 in 466.00 W/m2 unknown
10:14 50 °F 39.2 °F 30.4 in East 13.7 mph 18 mph 67% 0 in 462.00 W/m2 unknown
10:19 50 °F 39.2 °F 30.4 in ESE 13 mph 17.4 mph 66% 0 in 471.00 W/m2 unknown
10:24 50 °F 37.4 °F 30.4 in ESE 13 mph 17.4 mph 65% 0 in 489.00 W/m2 unknown
10:29 50 °F 39.2 °F 30.4 in East 12.4 mph 16.8 mph 65% 0 in 501.00 W/m2 unknown
10:34 50 °F 39.2 °F 30.4 in East 13.7 mph 17.4 mph 65% 0 in 506.00 W/m2 unknown
10:39 50 °F 37.4 °F 30.4 in East 14.9 mph 18.6 mph 63% 0 in 520.00 W/m2 unknown
10:44 50 °F 39.2 °F 30.4 in East 11.8 mph 18 mph 64% 0 in 526.00 W/m2 unknown
10:49 51.8 °F 39.2 °F 30.4 in ESE 11.8 mph 16.8 mph 63% 0 in 534.00 W/m2 unknown
10:54 51.8 °F 39.2 °F 30.4 in ESE 11.8 mph 16.8 mph 63% 0 in 548.00 W/m2 unknown
10:59 51.8 °F 39.2 °F 30.4 in East 13 mph 17.4 mph 63% 0 in 561.00 W/m2 unknown
11:04 51.8 °F 39.2 °F 30.4 in East 13.7 mph 16.8 mph 63% 0 in 564.00 W/m2 unknown
11:09 51.8 °F 39.2 °F 30.4 in ESE 12.4 mph 19.9 mph 63% 0 in 584.00 W/m2 unknown
11:14 51.8 °F 39.2 °F 30.4 in ESE 13.7 mph 19.9 mph 61% 0 in 592.00 W/m2 unknown
11:19 51.8 °F 39.2 °F 30.4 in East 14.9 mph 19.9 mph 62% 0 in 589.00 W/m2 unknown
11:24 51.8 °F 39.2 °F 30.4 in East 14.3 mph 26.7 mph 62% 0 in 601.00 W/m2 unknown
11:29 51.8 °F 37.4 °F 30.4 in East 12.4 mph 26.7 mph 61% 0 in 626.00 W/m2 unknown
11:34 51.8 °F 39.2 °F 30.4 in East 11.8 mph 14.9 mph 61% 0 in 628.00 W/m2 unknown
11:39 51.8 °F 37.4 °F 30.4 in East 11.8 mph 14.9 mph 60% 0 in 628.00 W/m2 unknown
11:44 51.8 °F 37.4 °F 30.4 in East 14.3 mph 19.9 mph 61% 0 in 649.00 W/m2 unknown
11:49 51.8 °F 37.4 °F 30.4 in ESE 14.3 mph 19.9 mph 59% 0 in 659.00 W/m2 unknown
11:54 51.8 °F 37.4 °F 30.4 in ESE 13 mph 16.2 mph 58% 0 in 663.00 W/m2 unknown
11:59 51.8 °F 37.4 °F 30.4 in ESE 11.8 mph 16.2 mph 57% 0 in 165.00 W/m2 unknown
12:04 51.8 °F 37.4 °F 30.4 in ESE 11.2 mph 16.2 mph 58% 0 in 700.00 W/m2 unknown
12:09 53.6 °F 37.4 °F 30.4 in ESE 16.2 mph 21.7 mph 58% 0 in 700.00 W/m2 unknown
12:14 51.8 °F 37.4 °F 30.4 in East 14.3 mph 21.7 mph 57% 0 in 200.00 W/m2 unknown
12:19 51.8 °F 37.4 °F 30.4 in ESE 9.3 mph 16.2 mph 59% 0 in 200.00 W/m2 unknown
12:24 51.8 °F 37.4 °F 30.3 in East 11.8 mph 14.9 mph 59% 0 in 666.00 W/m2 unknown
12:29 51.8 °F 37.4 °F 30.3 in East 12.4 mph 14.9 mph 59% 0 in 666.00 W/m2 unknown
12:34 51.8 °F 37.4 °F 30.3 in East 13 mph 18 mph 57% 0 in 693.00 W/m2 unknown
12:39 51.8 °F 37.4 °F 30.3 in East 13.7 mph 18.6 mph 56% 0 in 670.00 W/m2 unknown
12:44 53.6 °F 37.4 °F 30.3 in East 11.2 mph 18 mph 56% 0 in 694.00 W/m2 unknown
12:49 53.6 °F 37.4 °F 30.3 in East 14.3 mph 18.6 mph 55% 0 in 693.00 W/m2 unknown
12:54 53.6 °F 37.4 °F 30.3 in East 15.5 mph 18.6 mph 55% 0 in 701.00 W/m2 unknown
12:59 53.6 °F 37.4 °F 30.3 in ESE 14.3 mph 18 mph 55% 0 in 724.00 W/m2 unknown
13:04 53.6 °F 37.4 °F 30.3 in ESE 14.3 mph 16.8 mph 55% 0 in 754.00 W/m2 unknown
13:09 53.6 °F 37.4 °F 30.3 in East 13 mph 17.4 mph 55% 0 in 654.00 W/m2 unknown
13:14 53.6 °F 37.4 °F 30.3 in East 11.8 mph 16.8 mph 53% 0 in 589.00 W/m2 unknown
13:19 53.6 °F 35.6 °F 30.3 in East 12.4 mph 16.2 mph 52% 0 in 657.00 W/m2 unknown
13:24 53.6 °F 35.6 °F 30.3 in East 13.7 mph 18.6 mph 52% 0 in 657.00 W/m2 unknown
13:29 53.6 °F 37.4 °F 30.3 in East 14.9 mph 19.9 mph 53% 0 in 359.00 W/m2 unknown
13:34 53.6 °F 37.4 °F 30.3 in East 14.3 mph 19.9 mph 54% 0 in 510.00 W/m2 unknown
13:39 53.6 °F 37.4 °F 30.3 in ENE 13.7 mph 19.9 mph 54% 0 in 459.00 W/m2 unknown
13:44 53.6 °F 35.6 °F 30.3 in East 13.7 mph 19.9 mph 53% 0 in 531.00 W/m2 unknown
13:49 53.6 °F 37.4 °F 30.3 in East 13.7 mph 19.9 mph 54% 0 in 531.00 W/m2 unknown
13:54 53.6 °F 37.4 °F 30.3 in ESE 13.7 mph 19.9 mph 53% 0 in 446.00 W/m2 unknown
13:59 53.6 °F 37.4 °F 30.3 in ENE 13 mph 19.9 mph 53% 0 in 490.00 W/m2 unknown
14:04 53.6 °F 37.4 °F 30.3 in ENE 14.9 mph 23 mph 53% 0 in 452.00 W/m2 unknown
14:09 53.6 °F 37.4 °F 30.3 in East 13 mph 23 mph 54% 0 in 403.00 W/m2 unknown
14:14 53.6 °F 37.4 °F 30.3 in East 12.4 mph 18 mph 54% 0 in 438.00 W/m2 unknown
14:19 53.6 °F 37.4 °F 30.3 in East 12.4 mph 16.2 mph 55% 0 in 461.00 W/m2 unknown
14:24 53.6 °F 37.4 °F 30.3 in East 14.9 mph 21.7 mph 55% 0 in 462.00 W/m2 unknown
14:29 53.6 °F 37.4 °F 30.3 in East 14.3 mph 21.7 mph 54% 0 in 392.00 W/m2 unknown
14:34 53.6 °F 37.4 °F 30.3 in ENE 14.9 mph 19.9 mph 54% 0 in 420.00 W/m2 unknown
14:39 53.6 °F 37.4 °F 30.3 in East 13 mph 19.9 mph 53% 0 in 396.00 W/m2 unknown
14:44 53.6 °F 37.4 °F 30.3 in ENE 12.4 mph 17.4 mph 53% 0 in 367.00 W/m2 unknown
14:49 53.6 °F 37.4 °F 30.3 in ENE 14.3 mph 19.9 mph 53% 0 in 299.00 W/m2 unknown
14:54 53.6 °F 37.4 °F 30.3 in ENE 11.8 mph 19.9 mph 53% 0 in 320.00 W/m2 unknown
14:59 53.6 °F 35.6 °F 30.3 in East 10.6 mph 14.9 mph 52% 0 in 269.00 W/m2 unknown
15:04 53.6 °F 35.6 °F 30.3 in East 9.3 mph 14.3 mph 53% 0 in 239.00 W/m2 unknown
15:09 53.6 °F 35.6 °F 30.3 in East 10.6 mph 13 mph 53% 0 in 253.00 W/m2 unknown
15:14 53.6 °F 35.6 °F 30.3 in East 10.6 mph 14.3 mph 53% 0 in 251.00 W/m2 unknown
15:19 53.6 °F 35.6 °F 30.3 in ENE 12.4 mph 17.4 mph 52% 0 in 234.00 W/m2 unknown
15:24 53.6 °F 35.6 °F 30.3 in ENE 12.4 mph 16.8 mph 52% 0 in 229.00 W/m2 unknown
15:29 53.6 °F 35.6 °F 30.3 in East 13 mph 18.6 mph 53% 0 in 211.00 W/m2 unknown
15:34 51.8 °F 35.6 °F 30.3 in ENE 11.8 mph 18.6 mph 53% 0 in 251.00 W/m2 unknown
15:39 53.6 °F 35.6 °F 30.3 in ENE 9.9 mph 16.2 mph 53% 0 in 253.00 W/m2 unknown
15:44 53.6 °F 35.6 °F 30.3 in ENE 11.2 mph 14.9 mph 53% 0 in 279.00 W/m2 unknown
15:49 53.6 °F 35.6 °F 30.3 in East 12.4 mph 17.4 mph 53% 0 in 279.00 W/m2 unknown
15:54 53.6 °F 35.6 °F 30.3 in ENE 12.4 mph 16.8 mph 53% 0 in 315.00 W/m2 unknown
15:59 53.6 °F 35.6 °F 30.3 in ENE 11.8 mph 17.4 mph 52% 0 in 276.00 W/m2 unknown
16:04 53.6 °F 35.6 °F 30.3 in ENE 10.6 mph 16.8 mph 52% 0 in 267.00 W/m2 unknown
16:09 53.6 °F 35.6 °F 30.3 in ENE 11.8 mph 16.2 mph 52% 0 in 274.00 W/m2 unknown
16:14 53.6 °F 35.6 °F 30.3 in ENE 11.8 mph 16.2 mph 52% 0 in 274.00 W/m2 unknown
16:19 53.6 °F 35.6 °F 30.3 in East 11.2 mph 14.9 mph 53% 0 in 227.00 W/m2 unknown
16:24 53.6 °F 35.6 °F 30.3 in East 9.3 mph 14.9 mph 53% 0 in 171.00 W/m2 unknown
16:29 53.6 °F 35.6 °F 30.3 in ENE 13 mph 18.6 mph 51% 0 in 174.00 W/m2 unknown
16:34 51.8 °F 35.6 °F 30.3 in ENE 13 mph 18.6 mph 53% 0 in 172.00 W/m2 unknown
16:39 51.8 °F 35.6 °F 30.3 in ENE 13.7 mph 18 mph 53% 0 in 174.00 W/m2 unknown
16:44 51.8 °F 35.6 °F 30.3 in East 11.2 mph 16.2 mph 53% 0 in 206.00 W/m2 unknown
16:49 51.8 °F 35.6 °F 30.3 in ENE 13.7 mph 18.6 mph 53% 0 in 179.00 W/m2 unknown
16:54 51.8 °F 35.6 °F 30.3 in ENE 13 mph 18 mph 54% 0 in 132.00 W/m2 unknown
16:59 51.8 °F 35.6 °F 30.3 in ENE 11.8 mph 14.9 mph 54% 0 in 118.00 W/m2 unknown
17:04 51.8 °F 35.6 °F 30.3 in ENE 13 mph 18.6 mph 54% 0 in 116.00 W/m2 unknown
17:09 51.8 °F 35.6 °F 30.3 in ENE 13 mph 18.6 mph 55% 0 in 116.00 W/m2 unknown
17:14 51.8 °F 35.6 °F 30.3 in ENE 11.8 mph 16.8 mph 55% 0 in 102.00 W/m2 unknown
17:19 51.8 °F 35.6 °F 30.3 in ENE 13 mph 19.9 mph 55% 0 in 91.00 W/m2 unknown
17:24 51.8 °F 35.6 °F 30.3 in ENE 13 mph 19.9 mph 56% 0 in 90.00 W/m2 unknown
17:29 50 °F 35.6 °F 30.3 in ENE 13.7 mph 18.6 mph 56% 0 in 95.00 W/m2 unknown
17:34 50 °F 35.6 °F 30.3 in ENE 11.8 mph 18 mph 55% 0 in 86.00 W/m2 unknown
17:39 50 °F 35.6 °F 30.3 in ENE 11.2 mph 16.2 mph 56% 0 in 65.00 W/m2 unknown
17:44 50 °F 35.6 °F 30.3 in ENE 11.8 mph 16.2 mph 56% 0 in 53.00 W/m2 unknown
17:49 50 °F 35.6 °F 30.3 in ENE 11.8 mph 16.2 mph 56% 0 in 42.00 W/m2 unknown
17:54 50 °F 35.6 °F 30.3 in ENE 10.6 mph 14.9 mph 56% 0 in 32.00 W/m2 unknown
17:59 50 °F 35.6 °F 30.3 in East 8.7 mph 14.3 mph 57% 0 in 23.00 W/m2 unknown
18:04 50 °F 35.6 °F 30.3 in ENE 8.7 mph 16.2 mph 58% 0 in 18.00 W/m2 unknown
18:09 48.2 °F 35.6 °F 30.3 in ENE 9.9 mph 16.2 mph 58% 0 in 12.00 W/m2 unknown
18:14 48.2 °F 35.6 °F 30.3 in ENE 9.9 mph 14.9 mph 58% 0 in 7.00 W/m2 unknown
18:19 48.2 °F 33.8 °F 30.3 in ENE 8.7 mph 14.9 mph 58% 0 in 0.00 W/m2 unknown
18:24 48.2 °F 33.8 °F 30.3 in East 8.1 mph 14.9 mph 59% 0 in 0.00 W/m2 unknown
18:29 48.2 °F 33.8 °F 30.3 in East 10.6 mph 14.9 mph 59% 0 in 0.00 W/m2 unknown
18:34 48.2 °F 33.8 °F 30.3 in ENE 10.6 mph 14.9 mph 58% 0 in 0.00 W/m2 unknown
18:39 48.2 °F 33.8 °F 30.3 in ENE 9.9 mph 14.9 mph 58% 0 in 0.00 W/m2 unknown
18:44 48.2 °F 33.8 °F 30.3 in East 8.7 mph 14.3 mph 58% 0 in 0.00 W/m2 unknown
18:49 48.2 °F 33.8 °F 30.3 in East 8.1 mph 13 mph 59% 0 in 0.00 W/m2 unknown
18:54 48.2 °F 33.8 °F 30.3 in East 8.1 mph 11.8 mph 60% 0 in 0.00 W/m2 unknown
18:59 46.4 °F 33.8 °F 30.3 in ESE 5.6 mph 9.9 mph 61% 0 in 0.00 W/m2 unknown
19:04 46.4 °F 33.8 °F 30.3 in East 8.1 mph 9.3 mph 62% 0 in 0.00 W/m2 unknown
19:09 46.4 °F 33.8 °F 30.3 in East 8.1 mph 13 mph 63% 0 in 0.00 W/m2 unknown
19:14 46.4 °F 33.8 °F 30.3 in ESE 7.5 mph 13 mph 63% 0 in 0.00 W/m2 unknown
19:19 46.4 °F 33.8 °F 30.3 in ESE 8.1 mph 11.8 mph 63% 0 in 0.00 W/m2 unknown
19:24 46.4 °F 33.8 °F 30.3 in ESE 8.7 mph 11.8 mph 63% 0 in 0.00 W/m2 unknown
19:29 46.4 °F 33.8 °F 30.3 in ESE 8.7 mph 11.8 mph 64% 0 in 0.00 W/m2 unknown
19:34 46.4 °F 33.8 °F 30.3 in East 7.5 mph 11.8 mph 65% 0 in 0.00 W/m2 unknown
19:39 44.6 °F 33.8 °F 30.3 in East 6.8 mph 10.6 mph 66% 0 in 0.00 W/m2 unknown
19:44 44.6 °F 33.8 °F 30.3 in East 7.5 mph 11.8 mph 66% 0 in 0.00 W/m2 unknown
19:49 44.6 °F 33.8 °F 30.3 in East 9.3 mph 13 mph 66% 0 in 0.00 W/m2 unknown
19:54 44.6 °F 33.8 °F 30.3 in ESE 9.9 mph 14.3 mph 65% 0 in 0.00 W/m2 unknown
19:59 44.6 °F 33.8 °F 30.3 in East 11.2 mph 14.9 mph 65% 0 in 0.00 W/m2 unknown
20:04 44.6 °F 33.8 °F 30.3 in ESE 9.9 mph 14.9 mph 64% 0 in 0.00 W/m2 unknown
20:09 44.6 °F 33.8 °F 30.3 in ESE 8.7 mph 11.8 mph 65% 0 in 0.00 W/m2 unknown
20:14 44.6 °F 33.8 °F 30.3 in ESE 9.3 mph 13 mph 65% 0 in 0.00 W/m2 unknown
20:19 44.6 °F 33.8 °F 30.3 in ESE 9.3 mph 13 mph 65% 0 in 0.00 W/m2 unknown
20:24 44.6 °F 33.8 °F 30.3 in ESE 8.7 mph 13 mph 65% 0 in 0.00 W/m2 unknown
20:29 44.6 °F 33.8 °F 30.3 in ESE 8.1 mph 11.8 mph 66% 0 in 0.00 W/m2 unknown
20:34 44.6 °F 33.8 °F 30.3 in East 7.5 mph 11.8 mph 66% 0 in 0.00 W/m2 unknown
20:39 44.6 °F 33.8 °F 30.3 in East 7.5 mph 10.6 mph 66% 0 in 0.00 W/m2 unknown
20:44 42.8 °F 33.8 °F 30.3 in East 6.8 mph 10.6 mph 67% 0 in 0.00 W/m2 unknown
20:49 42.8 °F 33.8 °F 30.3 in East 6.8 mph 10.6 mph 67% 0 in 0.00 W/m2 unknown
20:54 42.8 °F 33.8 °F 30.4 in ESE 6.2 mph 9.9 mph 67% 0 in 0.00 W/m2 unknown
20:59 42.8 °F 33.8 °F 30.4 in East 6.2 mph 8.1 mph 68% 0 in 0.00 W/m2 unknown
21:04 42.8 °F 33.8 °F 30.4 in East 6.2 mph 9.3 mph 68% 0 in 0.00 W/m2 unknown
21:09 42.8 °F 32 °F 30.4 in East 6.8 mph 8.7 mph 67% 0 in 0.00 W/m2 unknown
21:14 42.8 °F 32 °F 30.4 in East 6.2 mph 8.1 mph 68% 0 in 0.00 W/m2 unknown
21:19 42.8 °F 32 °F 30.4 in East 5 mph 8.1 mph 68% 0 in 0.00 W/m2 unknown
21:24 42.8 °F 32 °F 30.4 in East 5 mph 6.8 mph 69% 0 in 0.00 W/m2 unknown
21:29 41 °F 32 °F 30.4 in East 5 mph 6.8 mph 69% 0 in 0.00 W/m2 unknown
21:34 41 °F 32 °F 30.4 in ENE 4.3 mph 6.2 mph 70% 0 in 0.00 W/m2 unknown
21:39 41 °F 32 °F 30.4 in ENE 4.3 mph 6.2 mph 70% 0 in 0.00 W/m2 unknown
21:44 41 °F 32 °F 30.4 in ENE 5 mph 6.8 mph 70% 0 in 0.00 W/m2 unknown
21:49 41 °F 32 °F 30.4 in ENE 5 mph 6.8 mph 70% 0 in 0.00 W/m2 unknown
21:54 41 °F 32 °F 30.4 in ENE 5 mph 6.8 mph 71% 0 in 0.00 W/m2 unknown
21:59 41 °F 32 °F 30.4 in ENE 5.6 mph 8.1 mph 71% 0 in 0.00 W/m2 unknown
22:04 41 °F 32 °F 30.4 in ENE 5 mph 8.1 mph 71% 0 in 0.00 W/m2 unknown
22:09 41 °F 32 °F 30.4 in ENE 5.6 mph 6.8 mph 71% 0 in 0.00 W/m2 unknown
22:14 41 °F 32 °F 30.4 in ENE 5.6 mph 8.1 mph 71% 0 in 0.00 W/m2 unknown
22:19 41 °F 32 °F 30.4 in ENE 5.6 mph 8.1 mph 71% 0 in 0.00 W/m2 unknown
22:24 41 °F 32 °F 30.4 in East 5 mph 8.1 mph 70% 0 in 0.00 W/m2 unknown
22:29 41 °F 32 °F 30.4 in East 5 mph 6.8 mph 70% 0 in 0.00 W/m2 unknown
22:34 41 °F 32 °F 30.4 in ENE 5 mph 6.8 mph 71% 0 in 0.00 W/m2 unknown
22:39 41 °F 32 °F 30.4 in ENE 5 mph 6.8 mph 71% 0 in 0.00 W/m2 unknown
22:44 41 °F 32 °F 30.4 in East 5 mph 6.8 mph 71% 0 in 0.00 W/m2 unknown
22:49 41 °F 32 °F 30.4 in East 5 mph 6.8 mph 71% 0 in 0.00 W/m2 unknown
22:54 41 °F 32 °F 30.4 in East 5 mph 6.8 mph 71% 0 in 0.00 W/m2 unknown
22:59 41 °F 32 °F 30.4 in East 4.3 mph 6.8 mph 72% 0 in 0.00 W/m2 unknown
23:04 41 °F 32 °F 30.4 in ENE 3.7 mph 6.8 mph 72% 0 in 0.00 W/m2 unknown
23:09 41 °F 32 °F 30.4 in NE 3.7 mph 6.2 mph 72% 0 in 0.00 W/m2 unknown
23:14 41 °F 32 °F 30.4 in NE 4.3 mph 6.8 mph 72% 0 in 0.00 W/m2 unknown
23:19 41 °F 32 °F 30.4 in ENE 3.7 mph 6.8 mph 72% 0 in 0.00 W/m2 unknown
23:24 41 °F 32 °F 30.4 in ENE 3.7 mph 6.2 mph 72% 0 in 0.00 W/m2 unknown
23:29 41 °F 32 °F 30.4 in ENE 4.3 mph 6.2 mph 72% 0 in 0.00 W/m2 unknown
23:34 41 °F 32 °F 30.4 in East 3.1 mph 6.2 mph 73% 0 in 0.00 W/m2 unknown
23:39 41 °F 32 °F 30.4 in ENE 3.1 mph 5 mph 73% 0 in 0.00 W/m2 unknown
23:44 41 °F 32 °F 30.4 in ENE 3.7 mph 6.8 mph 73% 0 in 0.00 W/m2 unknown
23:49 41 °F 32 °F 30.4 in ENE 3.1 mph 6.8 mph 73% 0 in 0.00 W/m2 unknown
23:54 41 °F 32 °F 30.4 in East 3.1 mph 3.7 mph 74% 0 in 0.00 W/m2 unknown
23:59 41 °F 32 °F 30.4 in East 3.1 mph 5 mph 74% 0 in 0.00 W/m2 unknown
Stazione Meteorologica MeteoMincio Rivalta s/M (MN)
Con i complimenti di Weather Underground - 4 mb



METEO PILLOLE
Tornado simultanei negli USA
Valle dell'Ohio
Il 3 e 4 aprile 1974, una perturbazione dissemina oltre 125 tornado dall'indiana alla Georgia settentrionale. Quasi un quarto di essi è considerato di grande potenza distruttiva.
Share

Non seguire questo link o sarai bannato dal sito!